Location: Newark
(44.4156°N, 12.1972°E)
Time: 00:25:20
(UTC+00:00)

STARLINK-1126 - Pass Details

Date: 31 January 2020
Orbit: 348 x 351 km, 53.0° (Epoch: 17 February)

Event Time Altitude Azimuth Distance (km) Brightness Sun altitude
Rises 17:10:17 0° 305° (NW) 2,158 7.3 -9.6°
Reaches altitude 10° 17:12:20 10° 310° (NW) 1,313 6.1 -9.9°
Maximum altitude 17:15:12 55° 30° (NNE) 428 2.8 -10.4°
Enters shadow 17:17:29 15° 107° (ESE) 1,072 4.6 -10.8°
